EW1802 Weather Reports


time (UTC)temp
F
wind
direction
speed
knots
gust
knots
rain 1hr
in
rain 24hr
in
rain mn
in
humidity
%
barometer
mb
20260505124705 67 255 0.9 2.6 0.00 0.00 0.00 64 1005.3
20260505124204 67 315 0.0 4.3 0.00 0.00 0.00 62 1005.3
20260505123704 67 159 0.0 2.6 0.00 0.00 0.00 64 1005.3
20260505123204 67 199 0.0 0.9 0.00 0.00 0.00 65 1005.3
20260505122704 66 276 0.0 0.9 0.00 0.00 0.00 66 1005.4
20260505121704 66 231 0.0 0.0 0.00 0.00 0.00 66 1005.4
20260505121204 65 234 0.0 1.7 0.00 0.00 0.00 66 1005.3
20260505115704 64 240 0.0 0.0 0.00 0.00 0.00 69 1005.5
20260505115204 63 241 0.0 0.0 0.00 0.00 0.00 70 1005.4
20260505114703 63 220 0.0 1.7 0.00 0.00 0.00 70 1005.3
20260505114204 63 226 0.0 0.0 0.00 0.00 0.00 70 1005.4
20260505113703 63 229 0.0 0.0 0.00 0.00 0.00 70 1005.3
20260505113203 63 228 0.0 0.0 0.00 0.00 0.00 69 1005.4
20260505112704 63 244 0.0 0.9 0.00 0.00 0.00 69 1005.2
20260505111704 63 290 0.0 2.6 0.00 0.00 0.00 70 1005.3
20260505111204 62 216 0.0 2.6 0.00 0.00 0.00 71 1005.3
20260505102204 60 284 0.0 0.0 0.00 0.00 0.00 74 1004.8
20260505101704 60 230 0.0 0.0 0.00 0.00 0.00 74 1004.6
20260505100203 61 227 0.0 1.7 0.00 0.00 0.00 74 1004.6
20260505095704 61 231 0.0 0.0 0.00 0.00 0.00 73 1004.5
20260505095204 61 250 0.0 0.0 0.00 0.00 0.00 73 1004.5
20260505094703 61 210 0.0 0.0 0.00 0.00 0.00 73 1004.4
20260505094203 61 213 0.0 0.0 0.00 0.00 0.00 73 1004.4
20260505093203 62 253 0.0 0.0 0.00 0.00 0.00 73 1004.2
20260505092204 62 307 0.0 0.0 0.00 0.00 0.00 73 1004.0
20260505091704 62 242 0.0 0.0 0.00 0.00 0.00 73 1004.0
20260505091204 61 236 0.0 0.0 0.00 0.00 0.00 74 1004.0
20260505090703 61 237 0.0 0.0 0.00 0.00 0.00 74 1004.0
20260505090204 61 240 0.0 0.0 0.00 0.00 0.00 75 1003.9
20260505085703 61 230 0.0 0.9 0.00 0.00 0.00 75 1003.9
20260505084704 61 215 0.0 0.0 0.00 0.00 0.00 76 1004.1
20260505084204 61 241 0.0 0.0 0.00 0.00 0.00 76 1004.0
20260505083704 61 245 0.0 0.0 0.00 0.00 0.00 76 1004.0
20260505083203 61 292 0.0 0.0 0.00 0.00 0.00 76 1004.0
20260505082703 61 215 0.0 0.0 0.00 0.00 0.00 76 1004.0
20260505081203 61 212 0.0 0.0 0.00 0.00 0.00 75 1004.0
20260505080704 61 217 0.0 0.0 0.00 0.00 0.00 74 1004.0
20260505080203 61 253 0.0 0.0 0.00 0.00 0.00 74 1004.0
20260505075704 61 209 0.0 0.0 0.00 0.00 0.00 74 1004.0
20260505075204 61 235 0.0 0.0 0.00 0.00 0.00 74 1004.0
20260505074704 62 230 0.0 0.0 0.00 0.00 0.00 73 1003.9
20260505074204 62 266 0.0 2.6 0.00 0.00 0.00 73 1003.8
20260505073204 62 253 0.0 0.0 0.00 0.00 0.00 72 1003.7
20260505072704 62 225 0.0 0.0 0.00 0.00 0.00 72 1003.7
20260505072204 62 256 0.0 0.0 0.00 0.00 0.00 72 1003.7
20260505071203 62 275 0.0 0.0 0.00 0.00 0.00 71 1003.6
20260505070204 63 292 0.0 0.0 0.00 0.00 0.00 71 1003.7
20260505065704 63 218 0.0 1.7 0.00 0.00 0.00 70 1003.8
20260505065204 63 256 0.0 0.9 0.00 0.00 0.00 70 1003.8
20260505064704 63 301 0.0 0.9 0.00 0.00 0.00 70 1003.8
20260505064204 63 268 0.0 0.0 0.00 0.00 0.00 70 1003.9
20260505063204 62 265 0.0 0.0 0.00 0.00 0.00 70 1003.8
20260505062704 62 242 0.0 0.0 0.00 0.00 0.00 71 1003.8
20260505062204 62 231 0.0 0.0 0.00 0.00 0.00 71 1003.9
20260505061704 62 217 0.0 0.0 0.00 0.00 0.00 71 1003.9
20260505061203 62 212 0.0 0.0 0.00 0.00 0.00 71 1004.0
20260505060704 62 220 0.0 0.0 0.00 0.00 0.00 71 1004.0
20260505060204 62 208 0.0 0.0 0.00 0.00 0.00 71 1004.2
20260505055704 62 194 0.0 0.0 0.00 0.00 0.00 71 1004.3
20260505055204 62 299 0.0 0.0 0.00 0.00 0.00 71 1004.5
20260505054203 62 247 0.0 0.0 0.00 0.00 0.00 71 1004.4
20260505053704 62 217 0.0 0.0 0.00 0.00 0.00 71 1004.5
20260505053204 62 218 0.0 0.0 0.00 0.00 0.00 71 1004.5
20260505052704 62 218 0.0 0.0 0.00 0.00 0.00 70 1004.6
20260505052204 62 211 0.0 0.0 0.00 0.00 0.00 70 1004.7
20260505051704 62 217 0.0 0.0 0.00 0.00 0.00 71 1004.6
20260505051204 62 288 0.0 0.0 0.00 0.00 0.00 70 1004.7
20260505050704 62 203 0.0 0.0 0.00 0.00 0.00 70 1004.7
20260505050203 62 238 0.0 0.0 0.00 0.00 0.00 70 1004.7
20260505041704 62 220 0.0 0.0 0.00 0.00 0.00 70 1004.9
20260505041204 62 243 0.0 0.0 0.00 0.00 0.00 70 1004.9
20260505040704 62 239 0.0 0.0 0.00 0.00 0.00 70 1005.0
20260505040203 62 176 0.0 0.0 0.00 0.00 0.00 70 1005.0
20260505035703 62 263 0.0 0.0 0.00 0.00 0.00 70 1005.0
20260505035203 62 275 0.0 0.0 0.00 0.00 0.00 70 1004.9
20260505034704 62 306 0.0 0.0 0.00 0.00 0.00 70 1004.9
20260505034204 62 269 0.0 0.0 0.00 0.00 0.00 70 1004.9
20260505033703 62 233 0.0 0.0 0.00 0.00 0.00 70 1004.9
20260505033203 62 251 0.0 0.0 0.00 0.00 0.00 70 1004.9
20260505031704 62 220 0.0 0.0 0.00 0.00 0.00 70 1004.9
20260505031204 62 228 0.0 0.0 0.00 0.00 0.00 69 1004.9
20260505030703 62 253 0.0 0.0 0.00 0.00 0.00 69 1004.9
20260505030204 62 259 0.0 0.0 0.00 0.00 0.00 69 1005.1
20260505025704 62 219 0.0 0.0 0.00 0.00 0.00 69 1005.0
20260505025203 62 229 0.0 0.0 0.00 0.00 0.00 68 1005.1
20260505024703 63 231 0.0 0.0 0.00 0.00 0.00 68 1005.1
20260505024204 63 246 0.0 0.0 0.00 0.00 0.00 67 1005.2
20260505023704 63 268 0.0 0.0 0.00 0.00 0.00 67 1005.2
20260505023204 63 222 0.0 0.0 0.00 0.00 0.00 66 1005.2
20260505022703 63 232 0.0 0.0 0.00 0.00 0.00 66 1005.2
20260505022205 64 219 0.0 0.0 0.00 0.00 0.00 66 1005.3
20260505021704 64 236 0.0 0.0 0.00 0.00 0.00 65 1005.3
20260505021205 64 221 0.0 0.0 0.00 0.00 0.00 65 1005.3
20260505020704 64 227 0.0 0.0 0.00 0.00 0.00 65 1005.3
20260505020204 64 207 0.0 0.0 0.00 0.00 0.00 64 1005.3
20260505015705 65 233 0.0 0.0 0.00 0.00 0.00 63 1005.2
20260505015204 65 210 0.0 0.0 0.00 0.00 0.00 63 1005.3
20260505014704 65 219 0.0 0.0 0.00 0.00 0.00 63 1005.3
20260505014205 65 218 0.0 0.0 0.00 0.00 0.00 62 1005.2
20260505013703 65 249 0.0 0.9 0.00 0.00 0.00 62 1005.2
20260505013203 65 223 0.0 0.9 0.00 0.00 0.00 62 1005.2
20260505012704 65 217 0.0 0.0 0.00 0.00 0.00 62 1005.2
20260505012204 66 228 0.0 0.0 0.00 0.00 0.00 61 1005.1
20260505011704 66 291 0.0 0.0 0.00 0.00 0.00 61 1005.0
20260505011203 66 278 0.0 0.0 0.00 0.00 0.00 60 1004.9
20260505010703 66 227 0.0 2.6 0.00 0.00 0.00 60 1004.8
20260505005703 66 218 0.0 4.3 0.00 0.00 0.00 60 1004.7
20260505005205 66 213 0.0 0.9 0.00 0.00 0.00 60 1004.7
20260505004204 67 233 0.0 1.7 0.00 0.00 0.00 59 1004.5
20260505003704 67 234 0.0 0.0 0.00 0.00 0.00 59 1004.5
20260505003204 67 255 0.0 1.7 0.00 0.00 0.00 59 1004.4
20260505002703 67 278 0.0 1.7 0.00 0.00 0.00 58 1004.3
20260505001703 68 263 0.0 0.0 0.00 0.00 0.00 58 1004.2
20260505000704 68 213 0.0 1.7 0.00 0.00 0.00 56 1004.1
20260505000204 68 203 0.0 2.6 0.00 0.00 0.00 57 1004.0
20260504235703 69 211 0.0 1.7 0.00 0.00 0.00 56 1003.9
20260504235203 69 221 0.0 0.0 0.00 0.00 0.00 56 1004.0
20260504234203 69 269 0.0 0.0 0.00 0.00 0.00 55 1004.1
20260504233705 69 266 0.0 0.0 0.00 0.00 0.00 55 1004.0
20260504233204 69 218 0.0 0.0 0.00 0.00 0.00 55 1004.0
20260504232704 69 253 0.0 0.0 0.00 0.00 0.00 55 1004.1
20260504232203 69 289 0.0 2.6 0.00 0.00 0.00 55 1004.0
20260504231703 69 4 0.0 5.2 0.00 0.00 0.00 56 1003.9
20260504231203 69 208 0.0 0.0 0.00 0.00 0.00 57 1003.9
20260504230705 70 230 0.0 2.6 0.00 0.00 0.00 57 1004.1
20260504225204 71 209 0.0 0.9 0.00 0.00 0.00 55 1004.2
20260504224704 71 293 0.0 0.9 0.00 0.00 0.00 54 1004.3
20260504224204 71 197 1.7 5.2 0.00 0.00 0.00 54 1004.4
20260504223704 71 200 0.9 2.6 0.00 0.00 0.00 53 1004.5
20260504223205 71 208 0.0 0.0 0.00 0.00 0.00 54 1004.6
20260504222704 71 218 0.0 0.0 0.00 0.00 0.00 55 1004.6
20260504221703 71 307 0.0 0.9 0.00 0.00 0.00 53 1004.6
20260504220703 70 248 0.0 0.0 0.00 0.00 0.00 56 1004.7
20260504220204 69 232 0.0 2.6 0.00 0.00 0.00 55 1004.7
20260504215704 70 219 0.0 0.0 0.00 0.00 0.00 55 1004.7
20260504214704 70 235 0.0 1.7 0.00 0.00 0.00 54 1004.6
20260504214204 70 196 0.0 0.0 0.00 0.00 0.00 54 1004.6
20260504213704 70 283 0.0 1.7 0.00 0.00 0.00 53 1004.6
20260504213203 70 270 0.0 0.0 0.00 0.00 0.00 54 1004.6
20260504212704 71 294 0.0 0.0 0.00 0.00 0.00 53 1004.6
20260504212203 71 196 0.0 0.9 0.00 0.00 0.00 52 1004.5
20260504211204 71 223 0.9 7.0 0.00 0.00 0.00 51 1004.4
20260504210704 71 208 0.0 2.6 0.00 0.00 0.00 52 1004.5
20260504210204 71 253 0.0 1.7 0.00 0.00 0.00 52 1004.5
20260504205703 72 196 0.0 2.6 0.00 0.00 0.00 51 1004.4
20260504205204 72 277 0.0 0.0 0.00 0.00 0.00 50 1004.5
20260504203203 72 224 0.9 4.3 0.00 0.00 0.00 50 1004.6
20260504202703 73 245 0.0 4.3 0.00 0.00 0.00 49 1004.6
20260504202203 73 283 0.0 4.3 0.00 0.00 0.00 48 1004.7
20260504201703 73 262 0.9 2.6 0.00 0.00 0.00 48 1004.6
20260504201203 73 286 0.0 1.7 0.00 0.00 0.00 48 1004.8
20260504200203 73 229 0.0 4.3 0.00 0.00 0.00 49 1004.9
20260504195704 73 302 0.0 2.6 0.00 0.00 0.00 49 1005.0
20260504195204 73 348 0.9 5.2 0.00 0.00 0.00 48 1005.0
20260504194704 73 247 0.0 2.6 0.00 0.00 0.00 49 1005.0
20260504194204 74 282 0.0 1.7 0.00 0.00 0.00 49 1005.1
20260504193704 74 203 0.9 4.3 0.00 0.00 0.00 50 1005.1
20260504193204 73 179 0.9 2.6 0.00 0.00 0.00 51 1005.2
20260504192703 72 212 0.9 2.6 0.00 0.00 0.00 51 1005.3
20260504192203 72 210 0.9 4.3 0.00 0.00 0.00 50 1005.4
20260504191704 73 246 0.9 4.3 0.00 0.00 0.00 48 1005.5
20260504190703 72 252 0.9 6.1 0.00 0.00 0.00 50 1005.4
20260504185704 72 194 0.9 4.3 0.00 0.00 0.00 50 1005.5
20260504184704 72 293 0.0 6.1 0.00 0.00 0.00 49 1005.7
20260504184204 72 306 0.0 4.3 0.00 0.00 0.00 49 1005.8
20260504183703 73 317 0.0 2.6 0.00 0.00 0.00 49 1005.9
20260504182703 73 178 0.9 5.2 0.00 0.00 0.00 49 1005.9
20260504181204 72 268 0.0 5.2 0.00 0.00 0.00 51 1006.1
20260504180703 72 260 1.7 5.2 0.00 0.00 0.00 49 1006.3
20260504180203 71 229 0.0 7.8 0.00 0.00 0.00 53 1006.3
20260504175703 71 158 1.7 6.1 0.00 0.00 0.00 49 1006.3
20260504175204 71 211 0.9 5.2 0.00 0.00 0.00 50 1006.4
20260504174704 70 164 1.7 5.2 0.00 0.00 0.00 52 1006.4
20260504174203 70 191 0.0 0.9 0.00 0.00 0.00 52 1006.5
20260504173704 69 223 0.0 4.3 0.00 0.00 0.00 50 1006.6
20260504173204 70 204 1.7 6.1 0.00 0.00 0.00 48 1006.7
20260504172704 70 193 2.6 7.8 0.00 0.00 0.00 48 1006.7
20260504171704 71 229 0.0 1.7 0.00 0.00 0.00 49 1006.6
20260504171205 71 185 0.9 2.6 0.00 0.00 0.00 50 1006.6
20260504170703 71 196 0.0 2.6 0.00 0.00 0.00 49 1006.8
20260504170203 70 197 0.9 2.6 0.00 0.00 0.00 50 1006.8
20260504150704 64 244 0.0 0.0 0.00 0.00 0.00 54 1008.5
20260504150204 64 263 0.0 1.7 0.00 0.00 0.00 55 1008.5
20260504141204 61 167 1.7 6.1 0.00 0.00 0.00 57 1008.6
20260504140704 60 199 0.0 0.0 0.00 0.00 0.00 58 1008.7
20260504140204 60 181 0.0 0.9 0.00 0.00 0.00 57 1008.7